sat.trackr.live / text

‹ back to catalog

STARLINK-36373

NORAD 68039 · 2026-040AA

PAYLOAD ACTIVE UNKNOWN

§ Identity

Operator
Country
US
Launch date
2026-03-01
Launch site
AFWTR
Launch vehicle
Mass (kg)
RCS (m²)

Purposes: comms

External: N2YO · Heavens-Above · Gunter

§ Orbital elements

Epoch: 2026-09-20T03:17:17.033280Z

Period
93.91 min
Inclination
97.2846°
Eccentricity
0.0002610
Mean motion
15.33463853 rev/d
Perigee alt
463.7 km
Apogee alt
467.3 km
Semi-major
6,843.6 km
B*
6.7810e-4
RAAN
210.4979°
Arg perigee
73.5151°
Mean anomaly
286.6378°
Rev number
3,126

§ Raw data

STARLINK-363731 68039U 26040AA  26263.13700270  .00021895  00000+0  67810-3 0  99962 68039  97.2846 210.4979 0002610  73.5151 286.6378 15.33463853 31260

JSON: /api/v1/satellites/68039 · /tle

For live sub-satellite position, see the globe view (requires WebGL).

§ Visibility from observer

Set your observer location to see the next 7 days of passes ≥ 10°. The values pass through the URL so the page stays shareable.

No JS? Fill the form by hand. The geolocation button needs JavaScript.